Wind_Speed
21 21 21 21 21 20 20 19 19 18 18 18 19 19 18 19 19 19 18 18 18 18 19 19 19 19 18 18 18 17 17 17 17 17 17 16 16 17 17 17 17 17 17 16
21 21 21 22 21 21 21 20 20 20 20 19 20 20 20 20 20 20 20 20 20 20 20 20 19 19 19 19 19 19 19 18 18 18 17 18 18 18 18 18 18 18 18 17
22 21 22 23 22 21 21 21 21 21 20 20 21 21 22 22 22 21 21 22 22 22 21 21 21 21 20 20 21 20 20 19 18 18 19 19 19 19 19 19 19 19 19 19
22 22 24 22 21 21 21 21 21 22 21 21 22 22 22 23 22 22 22 22 22 22 22 23 21 21 21 22 22 21 20 20 19 19 19 19 19 19 19 20 20 20 20 20
23 24 24 23 22 22 22 22 22 22 22 22 23 23 23 23 23 23 23 23 23 23 23 23 22 22 22 22 22 22 21 20 19 19 19 19 18 18 19 19 20 20 21 21
25 25 25 24 23 23 24 24 22 23 23 23 24 24 23 23 24 24 24 24 23 23 24 24 24 23 23 22 21 21 21 20 19 19 19 20 19 19 19 20 20 21 21 21
25 25 25 24 24 23 24 24 24 24 24 24 24 24 24 24 24 25 25 25 24 24 24 24 24 23 22 21 21 21 21 20 20 20 19 19 19 19 20 20 20 20 21 21
26 27 26 25 25 25 25 26 26 25 25 25 24 24 25 25 26 26 26 25 25 24 25 25 24 24 23 22 22 22 21 21 21 21 20 20 20 20 20 20 20 20 21 21
27 27 27 26 26 26 26 27 27 27 27 26 25 25 25 26 26 27 26 26 25 24 24 24 24 24 24 23 23 23 22 22 22 22 21 21 21 20 20 20 21 21 22 22
27 27 27 27 27 27 27 27 27 27 27 27 26 26 26 25 26 27 27 27 25 25 25 24 24 24 25 24 23 23 23 23 23 22 22 22 22 21 21 21 21 22 22 23
27 27 28 28 28 28 28 28 27 27 28 27 27 26 26 25 26 27 27 27 26 26 25 25 25 25 25 25 25 24 24 24 24 24 23 22 22 22 22 22 22 23 23 23
28 27 28 28 29 29 29 28 28 28 28 27 27 27 27 26 26 26 26 27 26 26 26 26 26 26 26 26 26 25 25 24 24 24 24 24 24 23 23 24 24 24 24 23
29 29 29 29 29 30 30 30 30 28 28 27 27 27 27 27 27 26 26 27 27 26 26 26 26 26 26 26 26 26 26 26 25 25 25 25 25 25 24 24 25 25 24 24
29 29 29 29 29 30 30 31 30 29 28 28 27 27 27 28 28 27 27 27 27 26 26 26 26 27 27 26 27 27 26 26 26 26 26 25 25 25 25 25 25 25 26 25
30 30 30 30 30 29 30 30 31 31 30 29 29 28 28 28 27 27 27 28 27 27 27 27 27 27 27 27 27 26 26 26 27 26 26 26 25 25 25 26 26 26 26 26
30 31 31 31 30 30 30 30 30 30 30 29 29 29 29 28 27 27 27 28 28 27 27 27 27 28 28 28 27 26 26 27 27 27 27 27 26 26 26 26 26 26 26 27
31 30 31 31 31 30 30 30 30 29 29 28 29 29 29 28 27 27 27 27 27 27 27 28 28 28 28 28 28 27 27 27 28 28 28 27 27 27 27 27 27 27 27 27
30 30 31 31 31 31 30 29 28 28 29 28 28 28 28 28 27 28 28 28 28 28 28 28 28 28 28 28 29 29 29 29 29 29 29 28 28 28 28 28 28 27 27 27
29 30 30 30 29 30 30 28 28 27 28 28 28 28 28 28 29 29 29 29 29 28 28 28 29 29 29 29 30 30 30 30 31 30 30 29 29 29 29 29 28 28 28 28
29 30 30 30 29 28 27 26 26 27 27 28 28 28 28 28 29 29 29 29 29 28 28 29 29 29 29 30 30 30 31 31 31 31 31 31 30 30 30 30 29 29 29 28
28 28 29 29 28 27 26 26 26 27 27 27 27 27 28 28 28 28 29 29 29 29 29 30 30 29 29 30 30 30 31 31 31 31 31 31 31 31 31 31 31 30 30 29
27 27 28 27 27 26 26 26 26 26 25 25 25 26 26 27 27 28 29 30 30 30 30 30 31 30 30 30 30 30 31 31 31 32 31 31 31 31 31 31 31 31 31 31
25 25 25 25 25 26 26 25 26 25 25 25 26 26 27 27 28 28 28 29 30 31 31 31 31 31 31 31 31 31 31 32 31 31 31 32 32 32 31 31 31 31 31 31
24 23 23 24 24 25 25 25 25 25 25 25 26 26 27 27 28 28 28 28 29 30 31 31 32 32 31 31 31 31 32 31 31 32 32 32 33 32 32 32 32 32 32 32
22 22 23 24 25 26 26 26 26 26 26 25 25 26 27 27 27 27 28 28 29 30 30 30 31 31 31 31 31 31 31 31 31 32 32 32 32 33 32 32 32 32 32 32
23 24 24 25 25 26 27 27 26 26 26 26 26 26 27 27 27 27 27 27 27 28 29 29 30 30 30 30 30 30 31 31 32 32 32 32 32 32 32 32 32 31 31 32
24 24 25 25 25 25 27 27 27 27 26 26 26 26 26 26 26 26 26 26 26 27 27 28 28 29 30 30 30 31 31 31 31 32 32 32 32 32 32 32 32 32 32 31
Wind_Direction
256 256 257 258 259 259 261 262 264 265 264 264 266 266 265 264 263 261 259 258 258 257 258 259 258 261 260 258 259 261 264 263 264 265 265 264 265 265 263 262 263 265 265 265
257 259 259 258 258 260 261 262 263 264 264 265 266 263 263 263 263 261 261 259 257 257 257 258 258 260 259 258 260 262 262 262 264 264 263 263 264 265 266 265 265 266 266 266
259 260 260 258 259 261 262 263 264 265 266 265 265 263 263 264 264 264 263 261 258 257 257 257 257 259 259 260 261 263 264 265 264 264 264 264 264 264 266 267 267 266 267 268
259 260 260 262 261 262 264 264 265 268 268 267 266 266 265 264 264 264 264 262 259 257 258 258 258 258 259 259 260 262 264 265 266 265 264 264 265 266 267 268 268 269 268 269
260 261 262 262 262 264 265 265 266 270 271 269 267 266 265 264 264 264 263 263 261 259 259 259 259 259 260 260 259 261 263 265 266 265 265 265 266 266 269 269 270 271 271 270
261 261 262 263 264 264 266 265 267 270 271 270 269 267 266 265 265 264 264 263 261 259 260 259 259 259 259 259 259 260 261 263 264 264 264 264 265 266 266 268 271 272 271 270
261 260 261 263 265 264 265 267 268 270 271 271 272 269 268 266 265 265 263 261 260 260 260 260 259 258 258 258 258 259 258 260 261 262 263 264 264 264 266 269 272 273 273 272
260 260 262 263 264 265 266 267 268 267 269 270 269 269 268 265 264 264 262 261 260 258 258 259 257 256 256 257 257 257 258 258 258 260 262 264 266 267 267 269 271 272 272 273
259 262 263 263 265 266 267 268 268 268 268 268 268 268 268 266 264 262 261 260 259 258 256 256 256 256 256 256 256 256 256 257 258 259 261 263 265 267 268 269 271 272 272 272
259 261 263 264 265 266 267 268 268 268 268 269 268 267 266 265 262 260 260 259 259 257 255 255 255 256 255 256 256 256 256 257 258 260 261 263 265 267 268 270 273 274 274 273
261 262 262 263 265 267 267 268 269 269 269 269 268 266 264 263 261 261 260 258 257 257 255 254 255 255 255 256 257 257 258 259 260 260 262 262 264 265 268 270 272 274 274 273
262 262 263 263 265 266 266 267 269 271 271 270 269 267 264 261 261 260 258 257 257 256 255 254 254 254 255 255 256 258 259 259 260 261 261 263 264 266 268 270 272 274 274 273
262 262 262 263 265 266 266 268 269 270 270 269 267 266 263 260 261 261 258 258 257 254 254 253 253 254 255 255 257 258 259 259 260 261 262 264 266 267 268 271 272 273 273 272
262 263 264 266 267 267 267 268 267 266 266 267 267 264 261 260 259 258 258 258 255 253 253 254 254 253 254 255 256 257 257 259 260 261 262 264 266 268 269 271 272 273 272 272
263 264 266 268 268 267 267 267 266 266 265 265 265 263 261 261 259 258 258 257 252 252 253 254 254 254 255 255 256 256 257 259 261 261 263 264 266 268 270 272 273 274 273 272
264 265 266 267 268 269 269 268 268 268 267 266 264 261 260 260 259 259 259 255 252 252 252 254 254 254 254 255 255 256 258 260 260 261 263 265 266 268 270 271 273 274 273 272
264 265 265 266 268 268 270 269 269 268 264 263 263 262 260 260 259 258 258 255 252 252 252 253 253 254 255 256 257 258 258 260 260 261 263 265 266 267 269 271 273 273 273 273
266 266 267 267 268 268 270 270 269 267 264 261 261 261 261 259 258 257 257 256 254 253 254 253 254 255 256 257 258 258 259 260 260 262 264 265 266 267 269 270 271 272 272 273
267 267 268 270 271 271 271 269 266 265 263 260 260 259 258 257 256 256 256 256 255 255 254 255 255 256 257 258 259 259 259 259 259 261 264 265 266 267 268 270 271 271 271 272
270 270 270 271 272 270 269 267 266 265 263 261 259 257 256 257 257 256 257 257 258 257 255 255 256 257 258 259 259 260 260 259 259 261 262 263 265 267 269 270 270 271 271 272
270 270 271 271 270 266 265 265 266 265 263 261 259 258 256 257 258 258 258 256 257 257 257 257 258 258 259 259 260 260 260 259 260 261 262 263 265 266 268 270 270 271 271 273
270 270 271 269 266 264 263 264 264 263 262 261 260 259 259 259 261 261 259 258 257 257 257 258 259 259 259 260 260 260 260 260 261 261 261 263 264 265 268 270 270 271 272 273
272 271 270 267 264 264 265 265 265 262 261 260 260 260 261 262 263 262 261 260 259 258 258 259 259 259 260 261 260 260 261 261 261 261 262 262 263 265 267 268 269 271 272 273
271 270 269 267 265 265 264 265 265 264 263 262 261 260 262 264 264 263 262 260 259 258 258 259 258 259 261 261 261 261 261 261 262 262 262 262 263 264 267 268 269 270 272 273
273 273 270 267 266 266 266 265 264 264 264 265 263 263 264 266 267 265 263 261 260 259 260 260 259 258 260 261 261 261 262 262 263 263 262 261 262 264 267 269 270 271 272 272
274 273 272 270 269 266 265 265 266 265 266 267 266 265 265 265 266 266 264 263 262 261 261 261 260 260 260 260 261 262 263 264 264 263 262 262 264 265 266 269 270 270 271 272
274 275 276 275 274 271 266 264 264 263 264 265 264 264 265 265 265 266 264 263 262 262 264 264 263 262 262 262 263 264 265 266 266 265 264 264 265 266 267 269 269 269 270 271
Height
5810 5810 5811 5812 5812 5813 5813 5814 5815 5816 5817 5817 5816 5816 5816 5816 5816 5817 5817 5818 5818 5819 5819 5820 5820 5821 5821 5821 5821 5822 5822 5822 5822 5823 5823 5823 5823 5823 5823 5824 5824 5824 5824 5824
5804 5804 5804 5805 5806 5806 5807 5808 5809 5809 5810 5810 5810 5810 5810 5811 5811 5811 5812 5812 5813 5813 5814 5814 5815 5815 5816 5816 5816 5817 5817 5817 5817 5817 5817 5818 5818 5818 5818 5818 5818 5819 5819 5819
5797 5798 5797 5798 5800 5800 5801 5801 5802 5803 5804 5803 5803 5803 5804 5804 5804 5805 5805 5806 5806 5807 5807 5808 5809 5809 5810 5810 5811 5811 5811 5811 5811 5811 5811 5812 5812 5812 5812 5812 5813 5813 5813 5813
5790 5791 5791 5795 5794 5794 5794 5794 5795 5795 5796 5796 5796 5796 5796 5797 5797 5798 5798 5799 5799 5800 5801 5802 5802 5803 5804 5804 5805 5805 5805 5805 5805 5805 5805 5806 5806 5806 5806 5806 5806 5806 5806 5806
5783 5783 5784 5786 5787 5787 5787 5788 5788 5788 5789 5789 5788 5789 5789 5789 5789 5790 5791 5791 5792 5793 5794 5795 5795 5796 5797 5798 5798 5798 5799 5799 5799 5799 5799 5800 5800 5800 5800 5800 5800 5800 5800 5800
5775 5775 5777 5780 5780 5780 5780 5780 5782 5781 5781 5781 5781 5782 5782 5782 5782 5782 5783 5783 5784 5785 5786 5787 5788 5789 5790 5791 5791 5792 5792 5793 5793 5793 5793 5793 5793 5793 5794 5794 5793 5793 5793 5793
5767 5767 5769 5772 5772 5773 5774 5775 5774 5773 5773 5774 5774 5774 5774 5774 5774 5774 5774 5775 5776 5777 5778 5779 5780 5781 5782 5783 5784 5785 5785 5786 5786 5787 5787 5787 5787 5787 5787 5787 5787 5787 5786 5786
5760 5760 5764 5763 5764 5765 5765 5765 5765 5765 5765 5765 5765 5765 5765 5765 5765 5766 5766 5767 5768 5769 5770 5771 5773 5774 5775 5776 5777 5777 5778 5779 5779 5780 5780 5780 5780 5781 5781 5780 5780 5780 5779 5779
5753 5755 5755 5755 5755 5755 5756 5756 5756 5757 5757 5757 5757 5757 5757 5757 5757 5757 5758 5759 5759 5760 5762 5763 5765 5766 5767 5768 5769 5770 5771 5771 5772 5773 5773 5773 5774 5774 5774 5774 5773 5773 5772 5772
5744 5745 5746 5746 5746 5747 5747 5747 5748 5748 5748 5748 5748 5748 5748 5748 5748 5748 5749 5750 5751 5752 5754 5755 5757 5758 5759 5760 5762 5763 5763 5764 5764 5765 5766 5766 5767 5767 5767 5767 5766 5766 5766 5765
5735 5737 5737 5737 5738 5738 5738 5738 5739 5739 5739 5739 5739 5739 5739 5740 5740 5740 5740 5741 5742 5744 5745 5747 5749 5750 5751 5753 5754 5755 5756 5756 5757 5758 5758 5759 5759 5759 5760 5760 5759 5759 5758 5757
5727 5728 5728 5729 5729 5729 5729 5729 5730 5730 5730 5730 5730 5730 5730 5731 5731 5731 5732 5733 5734 5735 5737 5738 5740 5742 5743 5744 5746 5747 5748 5749 5749 5750 5751 5751 5752 5752 5752 5752 5752 5751 5750 5750
5718 5718 5719 5719 5720 5720 5719 5720 5720 5720 5720 5720 5721 5721 5721 5722 5722 5723 5723 5724 5725 5727 5729 5730 5732 5733 5735 5736 5737 5739 5740 5741 5741 5742 5743 5743 5744 5744 5744 5744 5744 5743 5742 5742
5708 5709 5709 5710 5710 5710 5710 5710 5710 5710 5711 5711 5711 5712 5712 5713 5714 5714 5715 5716 5717 5719 5720 5722 5723 5725 5726 5727 5729 5730 5731 5732 5733 5734 5735 5735 5735 5735 5736 5735 5735 5735 5734 5733
5698 5699 5700 5700 5700 5700 5700 5700 5700 5701 5701 5701 5701 5702 5703 5704 5705 5706 5706 5707 5709 5710 5712 5714 5715 5717 5718 5719 5720 5721 5723 5724 5725 5726 5726 5727 5727 5727 5727 5727 5726 5726 5725 5725
5688 5689 5690 5690 5690 5690 5690 5690 5690 5691 5691 5691 5692 5692 5693 5694 5695 5696 5697 5698 5700 5702 5703 5705 5707 5708 5709 5710 5712 5713 5714 5715 5716 5717 5718 5718 5718 5718 5718 5718 5717 5717 5717 5716
5679 5679 5680 5680 5680 5680 5680 5680 5680 5680 5681 5682 5682 5683 5684 5685 5686 5687 5688 5689 5691 5693 5694 5696 5697 5699 5700 5702 5703 5704 5705 5706 5707 5708 5709 5709 5709 5709 5709 5709 5709 5708 5708 5707
5669 5670 5670 5670 5670 5670 5670 5669 5669 5670 5671 5671 5672 5673 5674 5676 5677 5678 5679 5681 5682 5684 5685 5687 5688 5690 5691 5693 5694 5695 5696 5697 5698 5699 5700 5700 5700 5700 5700 5700 5700 5699 5699 5698
5660 5660 5660 5660 5660 5660 5659 5659 5659 5660 5661 5661 5663 5664 5665 5667 5668 5669 5670 5672 5673 5675 5676 5678 5679 5681 5682 5683 5684 5685 5686 5687 5688 5689 5690 5690 5690 5690 5691 5691 5690 5690 5689 5689
5650 5650 5650 5650 5650 5650 5650 5650 5650 5650 5651 5652 5653 5655 5656 5657 5659 5660 5661 5662 5663 5665 5667 5668 5670 5671 5673 5673 5674 5675 5676 5677 5678 5679 5679 5680 5680 5681 5681 5681 5680 5680 5680 5679
5641 5641 5641 5641 5641 5641 5641 5641 5641 5642 5642 5643 5644 5646 5647 5648 5650 5651 5652 5653 5655 5656 5657 5659 5660 5661 5662 5663 5664 5665 5666 5667 5668 5668 5669 5670 5670 5671 5671 5671 5670 5670 5670 5669
5632 5632 5632 5632 5632 5632 5632 5632 5633 5633 5634 5635 5636 5637 5638 5640 5641 5641 5642 5644 5645 5646 5647 5649 5650 5651 5652 5653 5654 5655 5656 5657 5657 5658 5658 5659 5660 5660 5660 5660 5660 5660 5660 5659
5623 5623 5623 5623 5623 5623 5624 5624 5624 5625 5626 5627 5628 5629 5630 5631 5631 5632 5633 5634 5635 5636 5637 5639 5640 5641 5642 5643 5644 5645 5645 5646 5647 5647 5648 5648 5649 5649 5650 5649 5649 5649 5649 5648
5615 5615 5615 5615 5614 5615 5615 5616 5616 5617 5617 5618 5619 5620 5620 5621 5622 5622 5623 5624 5624 5626 5627 5628 5629 5630 5631 5632 5633 5634 5635 5635 5636 5637 5637 5638 5638 5638 5638 5638 5638 5638 5638 5637
5607 5607 5607 5606 5606 5606 5606 5607 5607 5608 5608 5609 5610 5610 5611 5612 5612 5613 5613 5614 5615 5615 5616 5617 5618 5619 5620 5621 5622 5623 5624 5624 5625 5625 5626 5626 5627 5627 5627 5627 5627 5627 5626 5626
5599 5599 5598 5598 5597 5597 5597 5598 5598 5598 5599 5600 5600 5601 5601 5602 5602 5603 5603 5604 5605 5605 5606 5607 5608 5609 5610 5611 5611 5612 5613 5613 5614 5614 5615 5615 5615 5616 5616 5616 5616 5615 5615 5615
5591 5590 5589 5589 5588 5588 5588 5588 5588 5589 5590 5590 5591 5592 5592 5592 5593 5594 5594 5595 5595 5596 5597 5597 5598 5599 5599 5600 5601 5601 5602 5602 5602 5603 5603 5604 5604 5604 5605 5605 5605 5605 5604 5604